Regional Weather Roundup
Issued by NWS

Home | Current Version | Previous Version | Text Only | Print | Product List | Glossary On
Versions: 1 2 3 4 5 6 7 8 9 10 11 12 13 14 15 16 17 18 19 20 21 22 23 24 25 26 27 28
000
ASUS42 KTBW 301417
RWRFL
FLORIDA REGIONAL WEATHER ROUNDUP
NATIONAL WEATHER SERVICE TAMPA BAY RUSKIN FL
1000 AM EDT MON MAY 30 2016

NOTE: "FAIR" INDICATES FEW OR NO CLOUDS BELOW 12,000 FEET WITH NO
SIGNIFICANT WEATHER AND/OR OBSTRUCTIONS TO VISIBILITY.

FLZ001>010-012>015-112-114-115-301500-
PANHANDLE FLORIDA

CITY           SKY/WX    TMP DP  RH WIND       PRES   REMARKS
PENSACOLA      CLOUDY    83  70  64 N6        30.03R
MILTON NAS     SUNNY     84  70  62 N3        30.03S
CRESTVIEW      MOSUNNY   85  70  60 VRB3      30.04F
DUKE FIELD     FAIR      82  68  62 N2        30.02S
VALPARAISO     PTSUNNY   85  68  57 N6        30.02S
TRI COUNTY     FAIR      83  70  64 N5        30.03S
PANAMA CITY    FAIR      82  70  66 NW3       30.02R
TYNDALL AFB    PTSUNNY   83  69  63 MISG      30.02S
APALACHICOLA   MOSUNNY   84  72  67 N6        30.02S

STATION/POSITION SKY/WX   TEMP    WIND        PRES    WAVE   SWELL
                          AIR SEA DIR/SP/G            HT/PER HT/PER
                          (F)     (DEG/KT/KT) (MB)    (FT/S) (FT/S)
30.1N   87.6W              80 81              1016.4R   1/ 4
29.2N   88.2W              79 80  280/  4/  4 1017.0R
28.8N   86.0W              79 81  360/  4/  4 1017.6R   1/ 3
PANAMA CITY BEAC           77 78  360/  3/  5 1017.0R
TOWER C                    78     350/  6/  7 1017.3R
28.5N   84.5W              79 80  330/  6/  8 1016.6R   1/ 3

$$
FLZ011-016>038-118-127-128-134-139-239-301500-
NORTH FLORIDA

CITY           SKY/WX    TMP DP  RH WIND       PRES   REMARKS
MARIANNA       MOSUNNY   85  69  58 NW6       30.02S
TALLAHASSEE    MOSUNNY   86  67  52 W6        30.01S
PERRY          MOSUNNY   84  69  61 CALM      30.02F
LIVE OAK       FAIR      84  70  61 W7        30.03F
CROSS CITY       N/A     81  70  69 CALM      30.02S
LAKE CITY      FAIR      81  70  69 CALM      30.02S
GAINESVILLE    MOSUNNY   82  70  66 VRB3      30.02S
WILLISTON      FAIR      84  72  65 W5        30.03S
PALATKA        FAIR      81  81 100 W6        30.02F
MAYPORT NAS    MOSUNNY   81  63  54 W5        30.00S
JACKSONVILLE   PTSUNNY   80  63  55 NW3       30.00S
JAX NAS        MOSUNNY   82  67  60 VRB5      30.02S
JAX CECIL      MOSUNNY   81  68  65 W6        30.02R
FERNANDINA BEA FAIR      82  61  47 W7        30.00S
ST AUGUSTINE   PTSUNNY   84  68  58 W7        30.01F
PALM COAST     SUNNY     81  72  74 W7        30.02R

STATION/POSITION SKY/WX   TEMP    WIND        PRES    WAVE   SWELL
                          AIR SEA DIR/SP/G            HT/PER HT/PER
                          (F)     (DEG/KT/KT) (MB)    (FT/S) (FT/S)
SHELL POINT                79     340/  6/ 10 1015.3
KEATON BEACH               82     300/  3/  6 1016.1F
CEDAR KEY                  81     320/  5/  7 1017.1R
FERNANDINA                 76 80  270/  4/  5 1015.9R
30.7N   81.3W                 78                N/A     2/ 8
MAYPORT                    77 80  320/  4/  5 1016.3R
31.4N   80.9W              73 76  260/ 12/ 12 1015.4R   2/ 8   2/ 8
ST AUGUSTINE               81 80  280/  6/  8 1016.7F

$$
FLZ040-043>046-052-053-057-058-063-144-301500-
INTERIOR CENTRAL FLORIDA

CITY           SKY/WX    TMP DP  RH WIND       PRES   REMARKS
OCALA          MOSUNNY   82  72  69 NW6       30.04R
THE VILLAGES     N/A     82  75  78 E8        29.93F
LEESBURG       SUNNY     82  71  69 NW8       30.03S
SANFORD        SUNNY     82  71  69 NW7       30.02S
ORLANDO EXEC   SUNNY     83  72  69 NW6       30.02F
ORLANDO INTL   MOSUNNY   83  70  64 N6        30.02F
KISSIMMEE      SUNNY     81  73  78 VRB5      30.03F
WINTER HAVEN   SUNNY     83  68  60 N5        30.04S
LAKELAND       SUNNY     81  72  74 NW5       30.04R
BARTOW         SUNNY     81  68  65 CALM      30.04S
OKEECHOBEE     SUNNY     81  70  69 CALM      30.04S

$$
FLZ041-047-054-059-064-141-147-301500-
EAST CENTRAL FLORIDA

CITY           SKY/WX    TMP DP  RH WIND       PRES   REMARKS
DAYTONA BEACH  MOSUNNY   82  72  71 W8        30.02S
DELAND           N/A     81  70  69 W5        30.03F
NEW SMYRNA BEA SUNNY     81  72  74 W9        30.03R
JFK SPACE CTR  SUNNY     82  72  70 NW7       30.01S
TITUSVILLE     MOSUNNY   81  77  89 NW14      30.02S
CAPE CANAVERAL SUNNY     83  71  66 W8        30.00F
PATRICK AFB    SUNNY     83  69  62 W7        30.02S
MELBOURNE        N/A     81  69  67 W9        30.02F
VERO BEACH     SUNNY     83  66  56 NW6       30.03S
FT PIERCE      PTSUNNY   83  69  62 NW6       30.03R
STUART         MOSUNNY   84  72  65 VRB5      30.04R

STATION/POSITION SKY/WX   TEMP    WIND        PRES    WAVE   SWELL
                          AIR SEA DIR/SP/G            HT/PER HT/PER
                          (F)     (DEG/KT/KT) (MB)    (FT/S) (FT/S)
28.5N   80.2W              78 79  270/  8/ 10 1016.9R
28.9N   78.5W              79 79  210/  6/  8 1016.8R
TRIDENT PIER               80 82  290/  6/  9 1016.7R
28.4N   80.5W                 81                N/A     2/ 8
27.5N   80.2W                 80                N/A     2/ 8

$$
FLZ050-056-061-142-242-148-248-149-249-151-251-155-255-
160-260-301500-
WEST CENTRAL FLORIDA

CITY           SKY/WX    TMP DP  RH WIND       PRES   REMARKS
CRYSTAL RIVER  FAIR      82  72  69 W6        30.03F
INVERNESS      FAIR      82  72  69 NW3       30.03F
BROOKSVILLE    SUNNY     83  71  67 W8        30.03F
ZEPHYRHILLS    FAIR      81  67  60 NW5       30.03F
CLEARWATER AIR FAIR      81  70  69 N7        30.02F
ST PETE CLEARW SUNNY     84  72  67 NW6       30.03S
TAMPA INTL     MOSUNNY   84  70  62 VRB5      30.03S
TAMPA EXEC     SUNNY     86  72  62 NW6       30.03F
PLANT CITY     SUNNY     82  73  74 CALM      30.05S
MACDILL AFB    SUNNY     85  76  73 N8        30.03R
PETER O KNIGHT SUNNY     86  72  62 NW5       30.03S
ST PETERSBURG  SUNNY     83  72  69 N9        30.01S
SARASOTA       MOSUNNY   84  70  62 CALM      30.01S
VENICE         NOT AVBL

STATION/POSITION SKY/WX   TEMP    WIND        PRES    WAVE   SWELL
                          AIR SEA DIR/SP/G            HT/PER HT/PER
                          (F)     (DEG/KT/KT) (MB)    (FT/S) (FT/S)
27.3N   84.2W                 82                N/A     1/ 2
CLEARWATER BEACH           80 83  330/  9/ 11 1017.0R
MIDDLE TAMPA BAY NOT AVBL
VENICE                     81 81  250/  4/  5 1016.5R

$$
FLZ066-069-070-075>078-162-262-165-265-301500-
SOUTHWEST FLORIDA AND KEYS

CITY           SKY/WX    TMP DP  RH WIND       PRES   REMARKS
PUNTA GORDA    SUNNY     82  69  64 S6        30.05S
FT MYERS       SUNNY     82  69  64 CALM      30.02S
SOUTHWEST INTL SUNNY     82  70  66 VRB5      30.03S
NAPLES         MOSUNNY   83  70  64 VRB3      30.02S
MARCO ISLAND   SUNNY     82  68  61 E6        30.03S
MARATHON       MOSUNNY   86  70  58 VRB5      30.01S
KEY WEST NAS   MOSUNNY   85  72  65 E6        30.01R
KEY WEST INTL  MOSUNNY   85  73  67 E7        30.01S

STATION/POSITION SKY/WX   TEMP    WIND        PRES    WAVE   SWELL
                          AIR SEA DIR/SP/G            HT/PER HT/PER
                          (F)     (DEG/KT/KT) (MB)    (FT/S) (FT/S)
NAPLES                        83              1016.6R
26.0N   85.6W              80 82   70/  6/  8 1017.2R   1
DRY TORTUGAS               82      60/  6/  6 1016.5R
SAND KEY                   81     150/  9/ 11 1016.6R
LONG KEY                   82 85   10/  1/  3 1016.7R
MOLASSES REEF              82 83   80/  6/  7 1016.7R

$$
FLZ067-068-071>074-168-172>174-301500-
SOUTHEAST FLORIDA

CITY           SKY/WX    TMP DP  RH WIND       PRES   REMARKS
W PALM BEACH   MOSUNNY   84  71  65 VRB3      30.03S
BOCA RATON     MOSUNNY   84  73  70 E6        30.02S
FT LAUDER-EXEC MOSUNNY   83  70  64 NE6       30.01S
FT LAUDERDALE  PTSUNNY   83  72  69 VRB5      30.01S
POMPANO BEACH  MOSUNNY   83  72  69 VRB6      30.02S
PEMBROKE PINES SUNNY     84  71  65 E5        30.03S
OPA LOCKA      MOSUNNY   83  71  67 SE7       30.02S
MIAMI          PTSUNNY   83  71  67 S3        30.01F
WEST KENDALL   PTSUNNY   83  71  67 VRB5      30.01S
HOMESTEAD      SUNNY     84  72  66 NE6       30.01S

STATION/POSITION SKY/WX   TEMP    WIND        PRES    WAVE   SWELL
                          AIR SEA DIR/SP/G            HT/PER HT/PER
                          (F)     (DEG/KT/KT) (MB)    (FT/S) (FT/S)
PORT EVERGLADES            82      70/  5/  8 1016.5S
VIRGINIA KEY               82 83   80/  3/  5 1016.7R
LAKE WORTH                 82 83   CALM  /  1 1016.5R
FOWEY ROCKS                82 82   70/  4/  4 1016.9S
SETTLEMENT POINT           83      CALM  /  1 1017.3S

$$





USA.gov is the U.S. government's official web portal to all federal, state and local government web resources and services.